"Pseudo-MPEC" for P10X8WU

Created 2020 Feb 23 20:07:12 UT using Find_Orb

Click here for an explanation of pseudo-MPECs

 
 Astrometry: 
     P10X8WU  C2020 01 27gVHZa^U9gRs+F]HOpCCAstrometry%+HA6r6x/q@exhy9LTSn`LyF51
     P10X8WU  C2020 01 27,0!5fqY0P2rT*.,9ZLX2oWKu1redacted;$iK+h2oiG[;ZkkRW=`F51
     P10X8WU  C2020 01 27amT`?2Lclick4iw0TVSaB8Ve97N]L:CgV#4d=-wiv@g`OC9UhereF51
     P10X8WU  C2020 01 27*[G`G:Q'B4SI)Qj_T$for#reaauNGJKaY/explanationvZIwt!%F51

Station data:
(F51) Pan-STARRS 1, Haleakala  (N20.707235 W156.255910)  US/Hawaii.
   Observers N. Primak, A. Schultz, S. Watters, J. Thiel, T. Goggia. Measurer
   PS1 Science Consortium. 1.8-m Ritchey-Chrétien + CCD.

Orbital elements:  P10X8WU
   Perihelion 2019 Aug 29.736125 +/- 309 TT = 17:40:01 (JD 2458725.236125)
Epoch 2020 Jan 28.0 TT = JDT 2458876.5   Earth MOID: 0.3427   Ma: 0.0513
M  41.98165307 +/- 80               (J2000 ecliptic)          AutoNEOCP
n   0.27753918 +/- 0.219            Peri.   44.27962 +/- 60
a   2.32766158 +/- 1.22             Node     0.61577 +/- 32
e   0.4321872 +/- 0.248             Incl.    7.09984 +/- 47
P   3.55                   H 20.2   G  0.15   U 11.7  SR
q 1.32167596 +/- 1.01    Q 3.33364720 +/- 26.6
From 4 observations 2020 Jan. 27 (53.7 min); mean residual 0".12
Residuals in arcseconds: 
200127 F51  .06-  .07+    200127 F51  .20+  .15+    
200127 F51  .01-  .18-    200127 F51  .13-  .04-    

Ephemerides (geocentric):
Date (UTC) HH   RA              Dec         delta   r     elong  mag " sig PA
---- -- -- --  -------------   -----------  ------ ------ -----  --- ---- ---
2020 02 23 20  09 21 00.902   +23 50 33.25  1.0797 2.0356 159.3 22.5  37d 163
2020 02 23 21  09 20 58.217   +23 50 28.46  1.0801 2.0358 159.3 22.5  37d 163
2020 02 23 22  09 20 55.535   +23 50 23.66  1.0805 2.0361 159.2 22.5  37d 163
2020 02 23 23  09 20 52.858   +23 50 18.84  1.0808 2.0363 159.2 22.5  37d 163
2020 02 24 00  09 20 50.184   +23 50 14.00  1.0812 2.0365 159.1 22.5  37d 163
2020 02 24 01  09 20 47.513   +23 50 09.14  1.0816 2.0367 159.1 22.5  37d 163
2020 02 24 02  09 20 44.847   +23 50 04.25  1.0819 2.0369 159.0 22.5  37d 163
2020 02 24 03  09 20 42.183   +23 49 59.35  1.0823 2.0372 159.0 22.5  37d 163
2020 02 24 04  09 20 39.524   +23 49 54.43  1.0827 2.0374 159.0 22.6  37d 163
2020 02 24 05  09 20 36.868   +23 49 49.49  1.0830 2.0376 158.9 22.6  37d 163
2020 02 24 06  09 20 34.216   +23 49 44.53  1.0834 2.0378 158.9 22.6  37d 163
2020 02 24 07  09 20 31.568   +23 49 39.55  1.0838 2.0381 158.8 22.6  37d 163
2020 02 24 08  09 20 28.923   +23 49 34.55  1.0842 2.0383 158.8 22.6  37d 163
2020 02 24 09  09 20 26.283   +23 49 29.53  1.0845 2.0385 158.7 22.6  37d 163
2020 02 24 10  09 20 23.645   +23 49 24.50  1.0849 2.0387 158.7 22.6  37d 163
2020 02 24 11  09 20 21.012   +23 49 19.44  1.0853 2.0389 158.6 22.6  37d 163
2020 02 24 12  09 20 18.382   +23 49 14.36  1.0856 2.0392 158.6 22.6  37d 163
2020 02 24 13  09 20 15.756   +23 49 09.26  1.0860 2.0394 158.5 22.6  37d 163
2020 02 24 14  09 20 13.133   +23 49 04.15  1.0864 2.0396 158.5 22.6  37d 163
2020 02 24 15  09 20 10.515   +23 48 59.01  1.0868 2.0398 158.5 22.6  37d 163
2020 02 24 16  09 20 07.900   +23 48 53.86  1.0871 2.0401 158.4 22.6  37d 163
2020 02 24 17  09 20 05.289   +23 48 48.68  1.0875 2.0403 158.4 22.6  37d 163
2020 02 24 18  09 20 02.681   +23 48 43.49  1.0879 2.0405 158.3 22.6  37d 163
2020 02 24 19  09 20 00.077   +23 48 38.28  1.0883 2.0407 158.3 22.6  37d 163
2020 02 24 20  09 19 57.477   +23 48 33.04  1.0886 2.0409 158.2 22.6  37d 163
2020 02 24 21  09 19 54.881   +23 48 27.79  1.0890 2.0412 158.2 22.6  37d 163
2020 02 24 22  09 19 52.289   +23 48 22.52  1.0894 2.0414 158.1 22.6  37d 163
2020 02 24 23  09 19 49.700   +23 48 17.23  1.0898 2.0416 158.1 22.6  37d 163
2020 02 25 00  09 19 47.115   +23 48 11.92  1.0901 2.0418 158.0 22.6  37d 163
2020 02 25 01  09 19 44.534   +23 48 06.59  1.0905 2.0421 158.0 22.6  37d 163
2020 02 25 02  09 19 41.956   +23 48 01.24  1.0909 2.0423 157.9 22.6  37d 163
2020 02 25 03  09 19 39.382   +23 47 55.88  1.0913 2.0425 157.9 22.6  37d 163
2020 02 25 04  09 19 36.812   +23 47 50.49  1.0916 2.0427 157.9 22.6  37d 163
2020 02 25 05  09 19 34.246   +23 47 45.08  1.0920 2.0429 157.8 22.6  37d 163
2020 02 25 06  09 19 31.684   +23 47 39.66  1.0924 2.0432 157.8 22.6  37d 163
2020 02 25 07  09 19 29.125   +23 47 34.21  1.0928 2.0434 157.7 22.6  37d 163
2020 02 25 08  09 19 26.570   +23 47 28.75  1.0932 2.0436 157.7 22.6  37d 163
2020 02 25 09  09 19 24.019   +23 47 23.27  1.0935 2.0438 157.6 22.6  37d 163
2020 02 25 10  09 19 21.472   +23 47 17.76  1.0939 2.0440 157.6 22.6  37d 163
2020 02 25 11  09 19 18.928   +23 47 12.24  1.0943 2.0443 157.5 22.6  37d 163
2020 02 25 12  09 19 16.389   +23 47 06.70  1.0947 2.0445 157.5 22.6  37d 163
2020 02 25 13  09 19 13.853   +23 47 01.15  1.0951 2.0447 157.4 22.6  37d 163
2020 02 25 14  09 19 11.321   +23 46 55.57  1.0955 2.0449 157.4 22.6  37d 163
2020 02 25 15  09 19 08.793   +23 46 49.97  1.0958 2.0452 157.4 22.6  37d 163
2020 02 25 16  09 19 06.268   +23 46 44.35  1.0962 2.0454 157.3 22.6  37d 163
2020 02 25 17  09 19 03.748   +23 46 38.72  1.0966 2.0456 157.3 22.6  37d 163
2020 02 25 18  09 19 01.231   +23 46 33.07  1.0970 2.0458 157.2 22.6  37d 163
2020 02 25 19  09 18 58.718   +23 46 27.39  1.0974 2.0460 157.2 22.6  37d 163